Location: Chiroubles
(46.1812°N, 4.6660°E)
Time: 18:46:47
(UTC+00:00)

Cosmos 2016 Rocket - Pass Details

Date: 15 August 2020
Orbit: 946 x 1001 km, 83.0° (Epoch: 24 September)

Event Time Altitude Azimuth Distance (km) Brightness Sun altitude
Exits shadow 22:02:22 42° 209° (SSW) 1,385 4.5 -25.8°
Maximum altitude 22:04:36 71° 280° (W) 1,054 4.2 -26.0°
Drops below altitude 10° 22:11:00 10° 5° (N) 2,784 7.1 -26.5°
Sets 22:13:34 0° 8° (N) 3,737 7.9 -26.7°
